Weather in Seogwipo

South Korea     33°16′09″N   126°36′25″E
temp.,
°C
wind,
m/s
gust,
m/s
humid.,
%
clouds,
%
prec.,
mm/h
press.,
hPa
HPBL,
m
25 june, sat
sat2500:00+22w479343 0.0 1006169
03:00+22w4893100 0.1 1006227
06:00+22ssw249983 0.2 1006151
09:00+23ssw349260 0.3 1007248
12:00+24ssw3586100 1.6 1007342
15:00+24ssw4687100 2.3 1007370
18:00+23sse138920 0.0 1008175
21:00+23s61198100 0.1 1010529
26 june, sun
sun2600:00+22ssw5119896 0.3 1011507
03:00+22ssw4109789 1.0 1010394
06:00+22sw279878 1.4 1012285
09:00+23ssw2795100 3.8 1013318
12:00+23ssw3893100 6.9 1013373
15:00+24ssw398996 8.8 1013491
18:00+24s3992100 0.7 1013373
21:00+23se3897100 0.7 1013309
27 june, mon
mon2700:00+23se2798100 0.0 1013279
03:00+22se2699100 1.1 1012243
06:00+22s1699100 2.9 1012239
09:00+23s2898100 9.8 1012310
12:00+23s41297100 4.4 1012500
15:00+24s41297100 5.9 1011598
18:00+23s51298100 0.9 1010504
21:00+23s51398100 2.1 1010534
28 june, tue
tue2800:00+23s51499100 1.7 1010576
03:00+23s61599100 2.6 1009599
06:00+23s61499100 0.6 1008578
09:00+23s51399100 0.9 1009493
12:00+23s51398100 0.2 1009520
15:00+24s41097100 0.4 1008467
18:00+23s31097100 0.2 1007432
21:00+23s41298100 0.3 1008494
29 june, wed
wed2900:00+23s41297100 0.1 1008510
03:00+23s51298100 0.3 1007578
06:00+23s51298100 0.6 1008564
09:00+23s51398100 0.9 1008506
12:00+23s41198100 0.2 1009495
15:00+24s3997100 0.5 1009435
18:00+23sse399892 0.4 1010417
21:00+23sse3898100 0.6 1010390